Conroe, TX

2:39 PM CDT on July 26, 2017 (GMT -0500)
Montgomery County

Weather History for KCXO - January, 2014

Change the Weather History Date:

Sunday, January 5, 2014

  Actual Average Record
Temperature  
Mean Temperature 48 °F -  
Max Temperature 63 °F 59 °F 75 °F (2005)
Min Temperature 32 °F 39 °F 23 °F (1999)
Degree Days  
Heating Degree Days 16    
Moisture  
Dew Point 41 °F    
Average Humidity 75    
Maximum Humidity 94    
Minimum Humidity 45    
Precipitation  
Precipitation 0.03 in - - ()
Sea Level Pressure  
Sea Level Pressure 30.03 in    
Wind  
Wind Speed 13 mph (WNW)    
Max Wind Speed 23 mph    
Max Gust Speed 38 mph    
Visibility 9 miles    
Events Rain    
Averages and records for this station are not official NWS values.
T = Trace of Precipitation, MM = Missing Value Source: NWS Daily Summary

Daily Weather History Graph

Daily Weather History Graph

Search for Another Location

Airport or City:

Trip Planner

Search our weather history database for the weather conditions in past years. The results will help you decide how hot, cold, wet, or windy it might be!

Date:

Astronomy

Jan. 05, 2014 Rise Set
Actual Time 7:19 AM CST 5:35 PM CST
Civil Twilight 6:52 AM CST 6:01 PM CST
Nautical Twilight 6:23 AM CST 6:31 PM CST
Astronomical Twilight 5:53 AM CST 7:00 PM CST
Moon 10:23 AM CST (1/5) 10:39 PM CST (1/5)
Length of Visible Light 11h 08m
Length of Day
10h 16m
Waxing Crescent, 25% of the Moon is Illuminated
Jan 5
Waxing Crescent
Jan 7
First Quarter
Jan 15
Full
Jan 23
Last Quarter
Jan 30
New

Hourly Weather History & Observations

Time (CST) Temp. Windchill Dew Point Humidity Pressure Visibility Wind Dir Wind Speed Gust Speed Precip Events Conditions
12:53 AM 62.1 °F - 57.0 °F 84% 29.86 in 10.0 mi SSE 9.2 mph - N/A   Overcast
1:53 AM 61.0 °F - 57.9 °F 90% 29.86 in 10.0 mi South 8.1 mph - 0.00 in   Overcast
2:53 AM 63.0 °F - 57.9 °F 84% 29.84 in 10.0 mi SSE 10.4 mph - N/A   Overcast
3:53 AM 63.0 °F - 59.0 °F 87% 29.83 in 10.0 mi SSE 9.2 mph - N/A   Overcast
4:38 AM 62.6 °F - 59.0 °F 88% 29.83 in 10.0 mi South 6.9 mph - 0.00 in   Overcast
4:53 AM 63.0 °F - 59.0 °F 87% 29.83 in 10.0 mi South 5.8 mph - 0.00 in   Overcast
5:53 AM 62.1 °F - 59.0 °F 90% 29.83 in 10.0 mi SSE 8.1 mph - N/A   Overcast
6:53 AM 62.1 °F - 60.1 °F 93% 29.88 in 8.0 mi WSW 5.8 mph - 0.01 in Rain Light Rain
7:51 AM 62.6 °F - 60.8 °F 94% 29.90 in 10.0 mi WSW 10.4 mph 18.4 mph 0.02 in Rain Light Rain
7:53 AM 63.0 °F - 61.0 °F 93% 29.90 in 10.0 mi West 8.1 mph 18.4 mph 0.02 in Rain Light Rain
7:56 AM 62.6 °F - 60.8 °F 94% 29.90 in 10.0 mi WSW 8.1 mph 18.4 mph 0.00 in Rain Light Rain
8:07 AM 62.6 °F - 60.8 °F 94% 29.90 in 10.0 mi WSW 8.1 mph - 0.00 in   Overcast
8:21 AM 60.8 °F - 59.0 °F 94% 29.93 in 10.0 mi WNW 21.9 mph 38.0 mph 0.00 in   Overcast
8:33 AM 48.2 °F - 46.4 °F 93% 29.96 in 8.0 mi WNW 21.9 mph 29.9 mph 0.00 in   Overcast
8:44 AM 44.6 °F 35.9 °F 42.8 °F 93% 29.97 in 7.0 mi NNW 23.0 mph 29.9 mph 0.00 in   Overcast
8:53 AM 44.1 °F 35.7 °F 41.0 °F 89% 29.98 in 7.0 mi NW 20.7 mph 27.6 mph 0.00 in   Overcast
9:16 AM 41.0 °F 32.5 °F 39.2 °F 93% 30.02 in 8.0 mi NW 17.3 mph 25.3 mph N/A   Overcast
9:53 AM 39.0 °F 29.3 °F 37.0 °F 93% 30.05 in 4.0 mi NW 19.6 mph 31.1 mph N/A   Overcast
10:02 AM 39.2 °F 31.2 °F 37.4 °F 93% 30.05 in 4.0 mi NW 13.8 mph 24.2 mph N/A   Overcast
10:53 AM 41.0 °F 32.8 °F 34.0 °F 76% 30.07 in 10.0 mi NW 16.1 mph 27.6 mph N/A   Overcast
11:00 AM 41.0 °F 32.8 °F 33.8 °F 76% 30.08 in 10.0 mi NW 16.1 mph 26.5 mph N/A   Overcast
11:53 AM 44.1 °F 37.4 °F 33.1 °F 65% 30.07 in 10.0 mi NW 13.8 mph 24.2 mph N/A   Overcast
12:53 PM 45.0 °F 36.9 °F 30.9 °F 58% 30.06 in 10.0 mi NW 20.7 mph 26.5 mph N/A   Clear
1:53 PM 46.9 °F - 30.0 °F 52% 30.06 in 10.0 mi NW 18.4 mph 28.8 mph N/A   Clear
2:53 PM 48.0 °F - 28.0 °F 46% 30.09 in 10.0 mi NW 20.7 mph 28.8 mph N/A   Clear
3:53 PM 46.0 °F 37.8 °F 26.1 °F 46% 30.12 in 10.0 mi NNW 23.0 mph 28.8 mph N/A   Clear
4:53 PM 43.0 °F 34.5 °F 23.0 °F 45% 30.16 in 10.0 mi NW 19.6 mph 27.6 mph N/A   Clear
5:53 PM 39.9 °F 32.5 °F 23.0 °F 51% 30.19 in 10.0 mi NNW 12.7 mph 20.7 mph N/A   Clear
6:53 PM 39.0 °F 29.6 °F 23.0 °F 53% 30.23 in 10.0 mi North 18.4 mph 26.5 mph N/A   Clear
7:53 PM 37.9 °F 29.2 °F 21.0 °F 51% 30.27 in 10.0 mi NNW 15.0 mph 29.9 mph N/A   Clear
8:53 PM 37.0 °F 26.2 °F 19.9 °F 50% 30.30 in 10.0 mi NNW 21.9 mph 29.9 mph N/A   Clear
9:53 PM 35.1 °F 24.5 °F 19.9 °F 54% 30.34 in 10.0 mi NNW 18.4 mph 35.7 mph N/A   Clear
10:53 PM 34.0 °F 23.0 °F 19.9 °F 56% 30.37 in 10.0 mi NNW 18.4 mph 31.1 mph N/A   Clear
11:53 PM 32.0 °F 22.5 °F 19.0 °F 59% 30.40 in 10.0 mi North 12.7 mph 25.3 mph N/A   Clear